"Time","Temp","Dewpoint","Humidity","Pressure","Direction","Speed","Gust","Precip","PrecipRate"
"00:04:57","76","72.2","88","30.07","157","1","3.6","0.00","0.00"
"00:09:58","75.9","72.1","88","30.07","157","1","3.6","0.00","0.00"
"00:14:58","75.9","72.1","88","30.07","157","0","1.2","0.00","0.00"
"00:19:58","75.8","72.2","88.6","30.07","157","0.2","1.2","0.00","0.00"
"00:24:57","75.8","72.3","89","30.07","157","0.1","1.2","0.00","0.00"
"00:29:58","75.8","72.3","89","30.07","157","0.2","2.4","0.00","0.00"
"00:34:57","75.8","72.3","89","30.07","157","0.3","1.2","0.00","0.00"
"00:39:58","75.7","72.2","89","30.07","156","0.8","2.4","0.00","0.00"
"00:44:58","75.7","72.2","89","30.07","156","0.6","2.4","0.00","0.00"
"00:49:58","75.7","72.2","89","30.07","156","1","3.6","0.00","0.00"
"00:54:58","75.7","72.2","89","30.07","156","1.2","4.8","0.00","0.00"
"00:59:57","75.7","72.2","89","30.07","157","1.2","3.6","0.00","0.00"
"01:04:58","75.6","72.1","89","30.07","157","0.2","2.4","0.00","0.00"
"01:09:58","75.5","72","89","30.07","157","0.1","1.2","0.00","0.00"
"01:14:59","75.4","71.9","89","30.07","157","0","0","0.00","0.00"
"01:19:59","75.3","72.2","90","30.06","157","0","0","0.00","0.00"
"01:24:59","75.2","72.1","90","30.06","157","0","1.2","0.00","0.00"
"01:29:59","75.1","72","90","30.06","157","0.4","2.4","0.00","0.00"
"01:34:59","74.9","71.9","90.1","30.06","157","1","3.6","0.00","0.00"
"01:39:56","74.8","72","91","30.06","157","0.4","2.4","0.00","0.00"
"01:44:56","74.7","71.9","91","30.06","157","0","1.2","0.00","0.00"
"01:49:56","74.7","71.9","91","30.06","157","0","0","0.00","0.00"
"01:54:56","74.6","71.8","91","30.06","157","0.2","2.4","0.00","0.00"
"01:59:57","74.5","71.9","91.6","30.06","157","0","0","0.00","0.00"
"02:04:57","74.4","71.9","92","30.06","157","0","0","0.00","0.00"
"02:09:57","74.3","71.8","92","30.06","157","0","1.2","0.00","0.00"
"02:14:58","74.2","71.7","92","30.06","157","0.2","2.4","0.00","0.00"
"02:19:58","74.2","71.8","92.5","30.06","157","0.3","2.4","0.00","0.00"
"02:24:58","74.1","71.6","92","30.06","157","0","0","0.00","0.00"
"02:29:58","74","71.6","92.4","30.06","157","0.3","2.4","0.00","0.00"
"02:34:57","73.8","71.5","92.4","30.06","157","0.1","1.2","0.00","0.00"
"02:39:58","73.7","71.4","92.7","30.06","157","0","0","0.00","0.00"
"02:44:58","73.6","71.4","93","30.06","157","0","0","0.00","0.00"
"02:49:58","73.4","71.3","93","30.05","157","0.1","1.2","0.00","0.00"
"02:54:58","73.3","71.2","93","30.05","157","0","0","0.00","0.00"
"02:59:58","73","70.9","93","30.05","157","0.4","2.4","0.00","0.00"
"03:04:56","72.7","70.7","93.1","30.04","157","0","0","0.00","0.00"
"03:09:56","72.5","70.7","94","30.04","157","0","1.2","0.00","0.00"
"03:14:56","72.5","70.7","94.2","30.04","157","0","1.2","0.00","0.00"
"03:19:56","72.3","70.5","94","30.04","157","0","0","0.00","0.00"
"03:24:56","72.3","70.8","95","30.04","157","0","0","0.00","0.00"
"03:29:56","72.2","70.7","95","30.04","157","0","0","0.00","0.00"
"03:34:57","72.1","70.6","94.9","30.04","157","0","0","0.00","0.00"
"03:39:57","72","70.4","94.8","30.04","157","0","0","0.00","0.00"
"03:44:57","72","70.5","95","30.04","157","0","0","0.00","0.00"
"03:49:59","72.1","70.6","95","30.04","157","0","0","0.00","0.00"
"03:54:56","72.2","70.8","95.4","30.04","157","0","0","0.00","0.00"
"03:59:59","72.2","71","96","30.04","157","0","0","0.00","0.00"
"04:04:56","72.3","71.1","96","30.04","157","0","0","0.00","0.00"
"04:09:56","72.2","71","96","30.04","157","0","0","0.00","0.00"
"04:14:57","72.2","71","96","30.05","157","0","0","0.00","0.00"
"04:19:57","72.3","71.1","96","30.05","157","0","0","0.00","0.00"
"04:24:58","72.3","71.1","96","30.05","157","0","0","0.00","0.00"
"04:29:56","72.4","71.2","96","30.05","157","0","0","0.00","0.00"
"04:34:56","72.4","71.2","96","30.05","157","0","0","0.00","0.00"
"04:39:59","72.4","71.2","96","30.05","157","0.4","2.4","0.00","0.00"
"04:44:56","72.5","71.3","96","30.05","157","0.6","2.4","0.00","0.00"
"04:49:56","72.6","71.4","96","30.04","150","1.6","3.6","0.00","0.00"
"04:54:58","72.6","71.4","96","30.04","156","1.6","4.8","0.00","0.00"
"04:59:58","72.7","71.5","96","30.04","160","1.6","3.5","0.00","0.00"
"05:04:58","72.7","71.5","96","30.04","161","1.3","3.6","0.00","0.00"
"05:09:58","72.8","71.5","95.8","30.04","162","1","2.4","0.00","0.00"
"05:14:58","72.8","71.5","95.8","30.05","162","0.9","2.4","0.00","0.00"
"05:19:57","72.8","71.6","96","30.05","162","0.7","2.4","0.00","0.00"
"05:24:58","72.8","71.5","95.8","30.05","170","1","3.6","0.00","0.00"
"05:29:58","72.6","71.4","95.8","30.05","186","1.9","4.8","0.00","0.00"
"05:34:57","72.6","71.4","96","30.05","186","2","4.6","0.00","0.00"
"05:39:57","72.5","71.3","96","30.05","186","0.8","3.6","0.00","0.00"
"05:44:56","72.5","71.3","96","30.05","186","1.8","3.6","0.00","0.00"
"05:49:56","72.4","71.2","96","30.05","187","0.2","2.3","0.00","0.00"
"05:54:59","72.4","71.2","96","30.05","187","2.1","6","0.00","0.00"
"05:59:58","72.3","71.1","96","30.06","188","1.7","3.6","0.00","0.00"
"06:04:58","72.3","71.1","96","30.06","189","2","4.8","0.00","0.00"
"06:09:59","72.3","71.1","96","30.06","213","1.3","6","0.00","0.00"
"06:14:56","72.2","71","96","30.07","264","2.1","5.8","0.00","0.00"
"06:19:56","72.2","71","96","30.07","248","0.7","2.4","0.00","0.00"
"06:24:56","72.2","71","96","30.07","248","0","1.2","0.00","0.00"
"06:29:59","72.1","70.9","96","30.07","248","0.8","2.4","0.00","0.00"
"06:34:58","72.1","70.9","96","30.06","248","0","0","0.00","0.00"
"06:39:59","72.1","70.9","96","30.06","248","0.5","2.4","0.00","0.00"
"06:44:57","72.1","70.9","96","30.06","248","1","2.4","0.00","0.00"
"06:49:57","72.1","70.9","96","30.06","247","0.9","3.6","0.00","0.00"
"06:54:56","72.1","70.9","96","30.06","211","1.6","3.6","0.00","0.00"
"06:59:58","72.1","70.9","96","30.07","210","1","3.6","0.00","0.00"
"07:04:58","72.2","71","96","30.07","210","0.8","2.4","0.00","0.00"
"07:09:58","72.2","71","96","30.07","210","1.3","3.6","0.00","0.00"
"07:14:58","72.3","71.1","96","30.07","211","0.4","2.4","0.00","0.00"
"07:19:57","72.4","71.2","96","30.07","211","0","0","0.00","0.00"
"07:24:56","72.5","71.3","96","30.07","210","0.5","3.6","0.00","0.00"
"07:29:59","72.5","71.2","95.5","30.07","210","0.5","3.6","0.00","0.00"
"07:34:57","72.6","71.1","95","30.07","210","1.2","3.6","0.00","0.00"
"07:39:57","72.7","71.2","95","30.07","210","1.4","3.6","0.00","0.00"
"07:44:56","72.9","71.4","95","30.07","210","1.7","2.4","0.00","0.00"
"07:49:59","73","71.5","94.8","30.07","209","1.5","3.6","0.00","0.00"
"07:54:58","73.2","71.4","94","30.07","209","1.1","3.6","0.00","0.00"
"07:59:58","73.3","71.2","93","30.08","210","1.1","2.4","0.00","0.00"
"08:04:58","73.5","71.5","93.5","30.08","233","0.9","3.6","0.00","0.00"
"08:09:58","73.8","71.6","93","30.08","319","1.1","3.5","0.00","0.00"
"08:14:57","74","71.7","92.6","30.08","285","1.5","4.8","0.00","0.00"
"08:19:56","74.2","71.7","92","30.08","250","1.1","3.6","0.00","0.00"
"08:24:56","74.4","71.7","91.5","30.08","236","0.5","3.5","0.00","0.00"
"08:29:59","74.4","71.6","91","30.09","239","1","4.8","0.00","0.00"
"08:34:57","74.3","71.5","91","30.09","314","1.6","4.8","0.00","0.00"
"08:39:57","74","71.2","91","30.09","251","1.2","4.8","0.00","0.00"
"08:44:56","73.7","71.1","91.4","30.09","301","0.6","4.6","0.00","0.00"
"08:49:59","73.6","71.1","92","30.09","301","0","0","0.00","0.00"
"08:54:58","73.6","71.1","92","30.09","301","0","0","0.00","0.00"
"08:59:57","73.7","71.3","92.3","30.09","295","0","2.4","0.00","0.00"
"09:04:57","73.9","71.4","92","30.09","295","1.4","4.8","0.00","0.00"
"09:09:57","74.3","71.8","91.9","30.09","350","2","7.2","0.00","0.00"
"09:14:57","74.6","71.7","90.7","30.09","355","0.8","3.6","0.00","0.00"
"09:19:56","74.9","72","90.7","30.09","355","0.7","2.4","0.00","0.00"
"09:24:58","75.1","72","90","30.09","355","0.4","2.4","0.00","0.00"
"09:29:57","75.3","72","89.6","30.09","355","1.1","2.4","0.00","0.00"
"09:34:56","75.4","72.1","89.5","30.09","355","0.9","4.8","0.00","0.00"
"09:39:56","75.5","71.8","88.3","30.09","355","2.1","4.8","0.00","0.00"
"09:44:59","75.7","71.9","88","30.09","339","0.5","2.4","0.00","0.00"
"09:49:58","76","72.2","88","30.09","233","0","1.2","0.00","0.00"
"09:54:57","76.6","72.6","87.4","30.09","247","0.2","2.4","0.00","0.00"
"09:59:57","77.1","72.3","85.1","30.09","247","1.2","3.6","0.00","0.00"
"10:04:56","77.3","72.2","84.5","30.09","254","1.2","4.8","0.00","0.00"
"10:09:56","77.8","72.6","84.2","30.09","286","1.2","4.8","0.00","0.00"
"10:14:56","78.2","72.5","82.7","30.09","293","1.4","4.6","0.00","0.00"
"10:19:56","78.8","72.9","82.2","30.09","258","1.3","3.6","0.00","0.00"
"10:24:57","79.3","73.2","81.4","30.09","238","1.6","6","0.00","0.00"
"10:29:57","79.8","72.7","79","30.09","342","2.7","5.8","0.00","0.00"
"10:34:57","80.2","72.6","77.7","30.09","339","2.4","6","0.00","0.00"
"10:39:58","80.4","72.7","77.4","30.09","338","0.7","3.6","0.00","0.00"
"10:44:56","80.8","72.9","77","30.09","334","0.4","3.6","0.00","0.00"
"10:49:57","81.2","72.4","74.7","30.09","336","1.6","6","0.00","0.00"
"10:54:58","81.4","72.6","74.9","30.09","345","1.5","7.2","0.00","0.00"
"10:59:58","81.7","72.6","74","30.10","344","2","4.8","0.00","0.00"
"11:04:56","81.9","72.3","72.9","30.10","333","2.3","4.8","0.00","0.00"
"11:09:57","82.1","72.6","73.1","30.10","350","2.9","8.4","0.00","0.00"
"11:14:58","82.2","73.1","73.8","30.10","331","2","6","0.00","0.00"
"11:19:59","82.5","73.2","73.4","30.10","339","2.5","7.2","0.00","0.00"
"11:24:55","82.7","73.2","72.8","30.10","337","1.8","9.6","0.00","0.00"
"11:29:56","83","72.9","71.7","30.10","331","3.3","9.2","0.00","0.00"
"11:34:57","83.9","74.5","73.3","30.09","274","1","3.6","0.00","0.00"
"11:39:59","84.3","73.8","70.9","30.09","302","1.9","8.4","0.00","0.00"
"11:44:59","84.4","73.5","69.9","30.09","345","2.5","7.2","0.00","0.00"
"11:49:56","84.8","72.8","67.5","30.09","340","2.7","6.9","0.00","0.00"
"11:54:57","85.1","72.5","66","30.09","338","3","7.2","0.00","0.00"
"11:59:58","85.5","72.8","66","30.09","343","3","7.2","0.00","0.00"
"12:04:59","85.9","72.7","65","30.09","288","2.8","10.8","0.00","0.00"
"12:09:56","85.3","72.2","64.9","30.09","227","2.2","7.2","0.00","0.00"
"12:14:58","85.1","72.8","66.8","30.09","328","2.7","7.2","0.00","0.00"
"12:19:59","85","71.7","64.6","30.08","344","2.2","7.2","0.00","0.00"
"12:24:59","85.3","73.1","67","30.08","345","1.2","2.4","0.00","0.00"
"12:29:56","85.7","72.7","65.4","30.08","301","2.3","7.2","0.00","0.00"
"12:34:57","85.7","73.1","66.2","30.07","281","1.8","3.6","0.00","0.00"
"12:39:59","86","73.2","65.6","30.07","211","2.1","6","0.00","0.00"
"12:44:59","86.2","72.3","63.4","30.07","248","1.8","6","0.00","0.00"
"12:49:56","87.2","73.4","63.6","30.07","296","1.7","5.8","0.00","0.00"
"12:54:57","87.8","72.8","61.3","30.07","232","1.9","7.2","0.00","0.00"
"12:59:57","86.9","71.4","60.2","30.07","221","3","6","0.00","0.00"
"13:04:59","87.4","73.2","62.8","30.07","218","3.1","7.2","0.00","0.00"
"13:09:56","88","72.8","60.7","30.07","223","3.2","9.6","0.00","0.00"
"13:14:58","88.2","71.3","57.4","30.07","237","4","12","0.00","0.00"
"13:19:59","88.2","70.9","56.7","30.06","340","4.3","12","0.00","0.00"
"13:24:59","88.5","72.5","59.4","30.06","355","2.8","11.5","0.00","0.00"
"13:29:56","88.4","72.2","59","30.06","341","3.1","8.4","0.00","0.00"
"13:34:57","88.3","71.7","58.1","30.05","312","3.6","9.6","0.00","0.00"
"13:39:59","88.4","71.1","56.8","30.05","233","3.5","8.1","0.00","0.00"
"13:44:59","88.4","72.1","58.8","30.05","242","2.9","10.8","0.00","0.00"
"13:49:57","88.7","70.2","54.7","30.05","259","3.1","10.8","0.00","0.00"
"13:54:57","88.6","71.3","56.8","30.05","173","1.7","4.8","0.00","0.00"
"13:59:58","89.1","71.6","56.5","30.05","206","4.5","13.2","0.00","0.00"
"14:04:59","89.2","70.8","54.8","30.04","222","4.5","12.7","0.00","0.00"
"14:09:56","89.7","71.3","54.9","30.04","284","3.8","8.4","0.00","0.00"
"14:14:57","90","71.1","54","30.04","330","3.3","13.2","0.00","0.00"
"14:19:58","90.2","69","49.9","30.03","244","3.7","13.2","0.00","0.00"
"14:24:59","89.1","68","49.9","30.03","325","2.9","13.2","0.00","0.00"
"14:29:59","89.1","68.6","51","30.03","318","3.5","12","0.00","0.00"
"14:34:56","89.9","69.4","51.1","30.03","213","3.7","8.4","0.00","0.00"
"14:39:57","90.5","68","47.8","30.03","246","3.7","9.6","0.00","0.00"
"14:44:57","90.4","67.9","47.8","30.03","227","5.4","13.2","0.00","0.00"
"14:49:59","90.4","67.1","46.5","30.02","301","3.4","9.6","0.00","0.00"
"14:54:56","90.1","66.6","46.2","30.02","297","4.7","13.2","0.00","0.00"
"14:59:56","89.7","66.7","46.9","30.02","249","3.7","12","0.00","0.00"
"15:04:57","89.6","66.7","47","30.02","342","6.4","15","0.00","0.00"
"15:09:58","89.6","67.1","47.6","30.02","324","2.4","6","0.00","0.00"
"15:14:59","90.4","68","48.1","30.02","343","4.6","13.2","0.00","0.00"
"15:19:56","90.6","67.8","47.4","30.02","324","2.7","8.1","0.00","0.00"
"15:24:57","91.2","68.7","47.8","30.02","333","4.3","16.1","0.00","0.00"
"15:29:57","91.3","68.8","47.8","30.02","320","4","8.4","0.00","0.00"
"15:34:58","91.1","68.3","47.4","30.02","312","2.8","8.1","0.00","0.00"
"15:39:56","90.9","68.8","48.6","30.02","303","2.4","6.9","0.00","0.00"
"15:44:57","91.3","69.6","49.1","30.02","349","3.2","12","0.00","0.00"
"15:49:58","91.7","68.8","47.3","30.01","248","3","9.6","0.00","0.00"
"15:54:58","91.6","68","46.1","30.01","305","3.7","9.6","0.00","0.00"
"15:59:59","91.9","68.4","46.3","30.01","249","3","7.2","0.00","0.00"
"16:04:56","92.2","68.4","46","30.01","346","3.5","8.4","0.00","0.00"
"16:09:57","92.2","68.7","46.4","30.01","257","2.6","7.2","0.00","0.00"
"16:14:58","91.9","67.5","44.9","30.01","298","2.6","6.9","0.00","0.00"
"16:19:59","91.2","67.2","45.5","30.01","325","3.1","8.4","0.00","0.00"
"16:24:56","91","67.8","46.7","30.01","269","3.3","8.1","0.00","0.00"
"16:29:56","91.2","67.5","46","30.01","212","3.6","6","0.00","0.00"
"16:34:57","91.3","68.2","46.9","30.01","305","3.5","8.4","0.00","0.00"
"16:39:59","91.1","67.4","45.9","30.01","330","4.8","13.2","0.00","0.00"
"16:44:59","90.8","68","47.4","30.01","339","2.5","7.2","0.00","0.00"
"16:49:56","90.8","68.1","47.5","30.01","343","1.7","4.8","0.00","0.00"
"16:54:57","91","67.4","46.1","30.01","271","2.3","7.2","0.00","0.00"
"16:59:58","91.4","68","46.4","30.01","327","3.7","10.8","0.00","0.00"
"17:04:55","91.8","68.6","46.9","30.01","311","1.5","5.8","0.00","0.00"
"17:09:57","92","67.7","45.1","30.01","292","2.7","6","0.00","0.00"
"17:14:58","91.8","67.9","45.7","30.01","343","2.2","7.2","0.00","0.00"
"17:19:59","91.8","68.2","46.2","30.01","336","1.5","5.8","0.00","0.00"
"17:24:56","92","67.7","45.1","30.01","349","1.6","3.6","0.00","0.00"
"17:29:57","91.8","67.2","44.7","30.01","349","1.1","3.6","0.00","0.00"
"17:34:58","91.5","67.2","45.1","30.01","348","0.4","2.4","0.00","0.00"
"17:39:56","91.2","66.7","44.8","30.01","346","0.5","2.4","0.00","0.00"
"17:44:57","91","66.8","45.1","30.01","347","1.3","3.6","0.00","0.00"
"17:49:58","90.8","67.2","46.1","30.01","346","1.9","4.8","0.00","0.00"
"17:54:59","90.7","67.3","46.4","30.01","343","1.2","4.8","0.00","0.00"
"17:59:56","90.2","67.1","46.7","30.01","349","2.3","7.2","0.00","0.00"
"18:04:58","89.4","66.2","46.5","30.00","355","1.9","4.8","0.00","0.00"
"18:09:59","88.8","66.5","47.8","30.00","355","1.5","4.8","0.00","0.00"
"18:14:57","88.3","66.2","48.2","30.01","355","0.7","2.4","0.00","0.00"
"18:19:58","87.9","66.4","49","30.01","355","1.6","4.8","0.00","0.00"
"18:24:59","87.6","66.2","49.2","30.01","355","1.6","4.6","0.00","0.00"
"18:29:56","87.3","66.4","49.9","30.01","355","2.1","7.2","0.00","0.00"
"18:34:57","87","66.2","50.2","30.01","320","1.2","3.6","0.00","0.00"
"18:39:59","86.8","66.6","51.2","30.01","313","0.6","4.8","0.00","0.00"
"18:44:59","86.4","67.8","53.9","30.01","314","1.3","4.6","0.00","0.00"
"18:49:57","85.8","69.6","58.6","30.01","313","1.2","3.6","0.00","0.00"
"18:54:57","84.2","69","60.5","30.01","214","5.1","13.2","0.00","0.00"
"18:59:58","81.6","68","63.4","30.03","204","5.6","12","0.00","0.00"
"19:04:59","79.8","67.5","66.1","30.03","210","3.8","8.4","0.00","0.00"
"19:09:56","79","66.9","66.6","30.03","202","3.3","8.4","0.00","0.00"
"19:14:57","78.6","66.8","67.3","30.03","210","1.7","4.8","0.00","0.00"
"19:19:56","78.2","66.8","68.2","30.03","211","1.5","4.8","0.00","0.00"
"19:24:56","77.9","68.1","72.1","30.03","212","1.7","4.8","0.00","0.00"
"19:29:59","77.2","68.1","73.6","30.05","224","2.6","8.4","0.00","0.00"
"19:34:58","76.1","67.4","74.5","30.05","196","4.9","12","0.00","0.00"
"19:39:59","75.2","67.4","76.7","30.05","219","2.2","6","0.00","0.00"
"19:44:58","74.9","68","79.2","30.06","213","1.5","3.6","0.00","0.00"
"19:49:58","74.5","68","80.4","30.06","211","2.4","6","0.01","0.01"
"19:54:57","74.3","68.1","81","30.06","207","1.8","5.8","0.01","0.01"
"19:59:57","74.1","68.4","82.4","30.07","254","2","4.8","0.01","0.01"
"20:04:57","74.1","68.4","82.4","30.07","230","1.3","3.6","0.01","0.01"
"20:09:57","74.2","68.8","83.2","30.07","185","0.4","3.5","0.01","0.01"
"20:14:58","74.4","69.3","84.2","30.07","185","0.3","2.4","0.01","0.01"
"20:19:58","74.4","69.3","84.3","30.06","182","0.7","3.6","0.01","0.01"
"20:24:57","74.3","69.4","84.9","30.06","183","0.9","3.6","0.01","0.01"
"20:29:58","73.9","69.5","86.2","30.06","234","2","4.8","0.01","0.01"
"20:34:57","73.6","69.5","87","30.06","264","1.2","3.6","0.01","0.01"
"20:39:58","73.4","69.4","87.5","30.06","264","0.5","3.5","0.01","0.01"
"20:44:58","73.3","69.5","88","30.07","267","0.7","2.4","0.01","0.01"
"20:49:59","73","69.6","88.9","30.07","314","1.2","4.8","0.01","0.01"
"20:54:59","72.8","69.5","89.2","30.07","349","0.2","2.4","0.01","0.00"
"20:59:59","72.6","69.5","89.8","30.07","349","0.2","1.2","0.01","0.00"
"21:04:56","72.5","69.3","89.5","30.07","349","0","1.2","0.01","0.00"
"21:09:56","72.5","69.2","89.5","30.07","349","0.2","1.2","0.01","0.00"
"21:14:57","72.4","69.3","90","30.08","281","2","6","0.01","0.00"
"21:19:57","72.3","69.3","90.6","30.08","174","3","6","0.01","0.00"
"21:24:57","72.2","69.2","90.5","30.08","163","0.6","2.4","0.01","0.00"
"21:29:57","72.1","69.3","91","30.08","163","1.1","2.4","0.01","0.00"
"21:34:57","72.1","69.3","91","30.08","163","0","0","0.01","0.00"
"21:39:58","72.1","69.3","91","30.08","163","0","0","0.01","0.00"
"21:44:58","72.1","69.2","90.5","30.09","163","0.4","3.6","0.01","0.00"
"21:49:59","72","69.2","91","30.09","163","1","3.5","0.01","0.00"
"21:54:59","71.9","69.1","91","30.09","163","0","0","0.01","0.00"
"21:59:59","71.7","68.9","91","30.09","163","0","0","0.01","0.00"
"22:04:56","71.7","68.9","91","30.09","163","0","0","0.01","0.00"
"22:09:55","71.6","68.8","91","30.09","163","0.5","2.4","0.01","0.00"
"22:14:56","71.5","69","91.7","30.09","114","1.6","3.6","0.01","0.00"
"22:19:56","71.3","68.9","92","30.08","42","0.4","3.6","0.01","0.00"
"22:24:56","71.1","68.7","92","30.08","42","0.7","3.6","0.01","0.00"
"22:29:56","70.9","68.5","92","30.09","42","0.3","1.2","0.01","0.00"
"22:34:56","70.8","68.4","92","30.09","42","0.2","2.4","0.01","0.00"
"22:39:57","70.6","68.4","92.4","30.09","42","0.4","2.4","0.01","0.00"
"22:44:57","70.6","68.5","92.8","30.09","42","0.3","2.4","0.01","0.00"
"22:49:57","70.6","68.2","92.2","30.09","42","0.8","2.4","0.01","0.00"
"22:54:57","70.4","68.1","92.3","30.09","42","0.6","2.4","0.01","0.00"
"22:59:57","70.4","68.3","93","30.09","41","0.9","3.6","0.01","0.00"
"23:04:57","70.2","68.1","93","30.09","41","0.7","2.4","0.01","0.00"
"23:09:57","70.1","68","93","30.09","41","0.1","1.2","0.01","0.00"
"23:14:58","70","67.9","93","30.09","42","0","1.2","0.01","0.00"
"23:19:58","69.9","67.8","93","30.09","42","0","1.2","0.01","0.00"
"23:24:58","69.8","67.9","93.7","30.09","42","0.2","1.2","0.01","0.00"
"23:29:59","69.7","67.9","94","30.09","41","0.1","2.4","0.01","0.00"
"23:34:59","69.7","67.9","94","30.09","41","0.3","2.4","0.01","0.00"
"23:39:56","69.6","67.8","94","30.09","41","0.3","2.4","0.01","0.00"
"23:44:56","69.6","67.8","94","30.09","42","0.3","2.4","0.01","0.00"
"23:49:56","69.6","67.8","94","30.09","40","1.6","3.6","0.01","0.00"
"23:54:59","69.5","67.7","94","30.09","22","1.9","4.8","0.01","0.00"
